| time (UTC) | temp C | wind direction | speed KPH | gust KPH | rain 1hr cm | rain 24hr cm | rain mn cm | humidity % | barometer mb |
| 20260504030213 | 6 | 227 | 3.2 | 4.8 | 0.00 | 0.00 | 0.00 | 58 | 1012.8 |
| 20260504025709 | 6 | 228 | 1.6 | 1.6 | 0.00 | 0.00 | 0.00 | 59 | 1012.7 |
| 20260504025206 | 6 | 214 | 1.6 | 3.2 | 0.00 | 0.00 | 0.00 | 59 | 1012.7 |
| 20260504024704 | 6 | 208 | 0.0 | 1.6 | 0.00 | 0.00 | 0.00 | 58 | 1012.8 |
| 20260504024200 | 6 | 203 | 1.6 | 1.6 | 0.00 | 0.00 | 0.00 | 58 | 1012.7 |
| 20260504023656 | 7 | 215 | 0.0 | 1.6 | 0.00 | 0.00 | 0.00 | 56 | 1012.8 |
| 20260504023152 | 6 | 216 | 3.2 | 3.2 | 0.00 | 0.00 | 0.00 | 58 | 1012.7 |
| 20260504022649 | 6 | 194 | 1.6 | 3.2 | 0.00 | 0.00 | 0.00 | 57 | 1012.9 |
| 20260504022144 | 6 | 203 | 1.6 | 3.2 | 0.00 | 0.00 | 0.00 | 57 | 1012.8 |
| 20260504021643 | 6 | 201 | 3.2 | 3.2 | 0.00 | 0.00 | 0.00 | 57 | 1012.9 |
| 20260504021139 | 7 | 174 | 0.0 | 3.2 | 0.00 | 0.00 | 0.00 | 58 | 1013.0 |
| 20260504020637 | 7 | 220 | 3.2 | 3.2 | 0.00 | 0.00 | 0.00 | 55 | 1012.9 |
| 20260504020132 | 7 | 205 | 1.6 | 1.6 | 0.00 | 0.00 | 0.00 | 57 | 1012.9 |
| 20260504015629 | 6 | 237 | 1.6 | 1.6 | 0.00 | 0.00 | 0.00 | 57 | 1012.8 |
| 20260504015125 | 6 | 231 | 1.6 | 1.6 | 0.00 | 0.00 | 0.00 | 56 | 1012.7 |
| 20260504014621 | 7 | 215 | 1.6 | 3.2 | 0.00 | 0.00 | 0.00 | 57 | 1012.8 |
| 20260504014119 | 7 | 207 | 0.0 | 0.0 | 0.00 | 0.00 | 0.00 | 56 | 1012.7 |
| 20260504013616 | 7 | 219 | 1.6 | 3.2 | 0.00 | 0.00 | 0.00 | 56 | 1012.8 |
| 20260504013113 | 7 | 211 | 0.0 | 0.0 | 0.00 | 0.00 | 0.00 | 56 | 1012.7 |
| 20260504012610 | 7 | 211 | 0.0 | 1.6 | 0.00 | 0.00 | 0.00 | 55 | 1012.5 |
| 20260504012108 | 7 | 210 | 1.6 | 1.6 | 0.00 | 0.00 | 0.00 | 56 | 1012.5 |
| 20260504011605 | 7 | 208 | 1.6 | 1.6 | 0.00 | 0.00 | 0.00 | 54 | 1012.6 |
| 20260504011101 | 7 | 182 | 1.6 | 1.6 | 0.00 | 0.00 | 0.00 | 55 | 1012.4 |
| 20260504010556 | 7 | 186 | 3.2 | 3.2 | 0.00 | 0.00 | 0.00 | 53 | 1012.4 |
| 20260504010053 | 7 | 206 | 1.6 | 3.2 | 0.00 | 0.00 | 0.00 | 53 | 1012.7 |
| 20260504005550 | 7 | 213 | 0.0 | 1.6 | 0.00 | 0.00 | 0.00 | 53 | 1012.6 |
| 20260504005047 | 7 | 201 | 1.6 | 1.6 | 0.00 | 0.00 | 0.00 | 53 | 1012.5 |
| 20260504004545 | 7 | 208 | 1.6 | 1.6 | 0.00 | 0.00 | 0.00 | 52 | 1012.4 |
| 20260504004042 | 7 | 188 | 1.6 | 3.2 | 0.00 | 0.00 | 0.00 | 51 | 1012.1 |
| 20260504003538 | 8 | 218 | 1.6 | 1.6 | 0.00 | 0.00 | 0.00 | 51 | 1012.5 |
| 20260504003035 | 8 | 231 | 3.2 | 3.2 | 0.00 | 0.00 | 0.00 | 50 | 1012.5 |
| 20260504002531 | 8 | 222 | 1.6 | 1.6 | 0.00 | 0.00 | 0.00 | 51 | 1012.4 |
| 20260504002029 | 8 | 209 | 0.0 | 1.6 | 0.00 | 0.00 | 0.00 | 51 | 1012.4 |
| 20260504001527 | 8 | 199 | 1.6 | 3.2 | 0.00 | 0.00 | 0.00 | 50 | 1012.3 |
| 20260504001022 | 8 | 217 | 1.6 | 1.6 | 0.00 | 0.00 | 0.00 | 50 | 1012.5 |
| 20260504000520 | 8 | 210 | 1.6 | 1.6 | 0.00 | 0.00 | 0.00 | 50 | 1012.4 |
| 20260504000017 | 8 | 250 | 1.6 | 1.6 | 0.00 | 0.00 | 0.00 | 49 | 1012.1 |
| 20260503235515 | 8 | 216 | 1.6 | 3.2 | 0.00 | 0.00 | 0.00 | 48 | 1012.3 |
| 20260503235011 | 9 | 215 | 1.6 | 1.6 | 0.00 | 0.00 | 0.00 | 48 | 1012.3 |
| 20260503234509 | 9 | 236 | 3.2 | 4.8 | 0.00 | 0.00 | 0.00 | 47 | 1012.0 |
| 20260503234007 | 9 | 255 | 6.4 | 9.7 | 0.00 | 0.00 | 0.00 | 47 | 1012.4 |
| 20260503233503 | 9 | 203 | 1.6 | 1.6 | 0.00 | 0.00 | 0.00 | 49 | 1012.5 |
| 20260503232959 | 9 | 205 | 3.2 | 3.2 | 0.00 | 0.00 | 0.00 | 47 | 1012.5 |
| 20260503232456 | 10 | 179 | 3.2 | 4.8 | 0.00 | 0.00 | 0.00 | 46 | 1012.4 |
| 20260503231954 | 10 | 207 | 3.2 | 3.2 | 0.00 | 0.00 | 0.00 | 46 | 1012.5 |
| 20260503231451 | 10 | 330 | 3.2 | 3.2 | 0.00 | 0.00 | 0.00 | 47 | 1012.5 |
| 20260503230948 | 10 | 194 | 1.6 | 3.2 | 0.00 | 0.00 | 0.00 | 45 | 1012.4 |
| 20260503230444 | 10 | 288 | 6.4 | 6.4 | 0.00 | 0.00 | 0.00 | 45 | 1012.1 |
| 20260503225942 | 10 | 296 | 4.8 | 9.7 | 0.00 | 0.00 | 0.00 | 45 | 1012.3 |
| 20260503225439 | 10 | 248 | 4.8 | 6.4 | 0.00 | 0.00 | 0.00 | 44 | 1012.3 |
| 20260503224934 | 10 | 246 | 1.6 | 1.6 | 0.00 | 0.00 | 0.00 | 45 | 1012.3 |
| 20260503224431 | 10 | 228 | 3.2 | 4.8 | 0.00 | 0.00 | 0.00 | 45 | 1012.3 |
| 20260503223929 | 10 | 299 | 6.4 | 6.4 | 0.00 | 0.00 | 0.00 | 44 | 1012.5 |
| 20260503223427 | 10 | 308 | 6.4 | 12.9 | 0.00 | 0.00 | 0.00 | 45 | 1012.4 |
| 20260503222922 | 10 | 211 | 3.2 | 4.8 | 0.00 | 0.00 | 0.00 | 44 | 1012.4 |
| 20260503222421 | 10 | 216 | 4.8 | 4.8 | 0.00 | 0.00 | 0.00 | 44 | 1012.5 |
| 20260503221919 | 11 | 164 | 3.2 | 3.2 | 0.00 | 0.00 | 0.00 | 43 | 1012.3 |
| 20260503221417 | 11 | 223 | 1.6 | 3.2 | 0.00 | 0.00 | 0.00 | 44 | 1012.3 |
| 20260503220913 | 11 | 244 | 4.8 | 4.8 | 0.00 | 0.00 | 0.00 | 43 | 1012.1 |
| 20260503220410 | 10 | 222 | 3.2 | 4.8 | 0.00 | 0.00 | 0.00 | 42 | 1012.4 |
| 20260503215907 | 10 | 287 | 4.8 | 6.4 | 0.00 | 0.00 | 0.00 | 43 | 1012.4 |
| 20260503215404 | 11 | 200 | 1.6 | 1.6 | 0.00 | 0.00 | 0.00 | 42 | 1012.1 |
| 20260503214901 | 11 | 222 | 3.2 | 4.8 | 0.00 | 0.00 | 0.00 | 43 | 1012.5 |
| 20260503214358 | 11 | 234 | 1.6 | 1.6 | 0.00 | 0.00 | 0.00 | 45 | 1012.3 |
| 20260503213856 | 11 | 172 | 3.2 | 4.8 | 0.00 | 0.00 | 0.00 | 43 | 1012.3 |
| 20260503213354 | 10 | 258 | 3.2 | 3.2 | 0.00 | 0.00 | 0.00 | 44 | 1012.3 |
| 20260503212850 | 11 | 181 | 3.2 | 4.8 | 0.00 | 0.00 | 0.00 | 43 | 1012.1 |
| 20260503212348 | 11 | 79 | 3.2 | 3.2 | 0.00 | 0.00 | 0.00 | 44 | 1012.3 |
| 20260503211845 | 10 | 174 | 3.2 | 3.2 | 0.00 | 0.00 | 0.00 | 46 | 1012.1 |
| 20260503211342 | 10 | 245 | 4.8 | 6.4 | 0.00 | 0.00 | 0.00 | 43 | 1011.9 |
| 20260503210837 | 10 | 113 | 6.4 | 6.4 | 0.00 | 0.00 | 0.00 | 44 | 1012.1 |
| 20260503210334 | 11 | 186 | 8.0 | 9.7 | 0.00 | 0.00 | 0.00 | 42 | 1012.1 |
| 20260503205829 | 11 | 226 | 3.2 | 4.8 | 0.00 | 0.00 | 0.00 | 41 | 1012.1 |
| 20260503205326 | 10 | 229 | 4.8 | 6.4 | 0.00 | 0.00 | 0.00 | 43 | 1012.3 |
| 20260503204822 | 11 | 318 | 6.4 | 9.7 | 0.00 | 0.00 | 0.00 | 43 | 1012.3 |
| 20260503204320 | 10 | 228 | 4.8 | 6.4 | 0.00 | 0.00 | 0.00 | 44 | 1012.3 |
| 20260503203817 | 11 | 220 | 4.8 | 4.8 | 0.00 | 0.00 | 0.00 | 42 | 1012.1 |
| 20260503203315 | 10 | 233 | 3.2 | 3.2 | 0.00 | 0.00 | 0.00 | 43 | 1012.3 |
| 20260503202811 | 10 | 277 | 4.8 | 6.4 | 0.00 | 0.00 | 0.00 | 44 | 1012.3 |
| 20260503202309 | 10 | 242 | 6.4 | 6.4 | 0.00 | 0.00 | 0.00 | 44 | 1012.5 |
| 20260503201807 | 10 | 256 | 3.2 | 3.2 | 0.00 | 0.00 | 0.00 | 45 | 1012.6 |
| 20260503201304 | 10 | 265 | 6.4 | 9.7 | 0.00 | 0.00 | 0.00 | 43 | 1012.8 |
| 20260503200801 | 10 | 213 | 6.4 | 6.4 | 0.00 | 0.00 | 0.00 | 43 | 1012.8 |
| 20260503200257 | 10 | 243 | 6.4 | 6.4 | 0.00 | 0.00 | 0.00 | 44 | 1012.8 |
| 20260503195755 | 11 | 250 | 3.2 | 4.8 | 0.00 | 0.00 | 0.00 | 44 | 1012.6 |
| 20260503195251 | 10 | 334 | 6.4 | 9.7 | 0.00 | 0.00 | 0.00 | 45 | 1012.7 |
| 20260503194749 | 11 | 95 | 3.2 | 4.8 | 0.00 | 0.00 | 0.00 | 42 | 1012.8 |
| 20260503194244 | 10 | 218 | 8.0 | 11.3 | 0.00 | 0.00 | 0.00 | 43 | 1012.8 |
| 20260503193741 | 10 | 316 | 8.0 | 11.3 | 0.00 | 0.00 | 0.00 | 44 | 1013.0 |
| 20260503193237 | 10 | 200 | 6.4 | 9.7 | 0.00 | 0.00 | 0.00 | 43 | 1012.9 |
| 20260503192733 | 10 | 224 | 8.0 | 11.3 | 0.00 | 0.00 | 0.00 | 44 | 1013.0 |
| 20260503192228 | 11 | 305 | 4.8 | 6.4 | 0.00 | 0.00 | 0.00 | 43 | 1013.0 |
| 20260503191725 | 11 | 250 | 6.4 | 6.4 | 0.00 | 0.00 | 0.00 | 44 | 1013.0 |
| 20260503191222 | 10 | 310 | 12.9 | 14.5 | 0.00 | 0.00 | 0.00 | 43 | 1013.2 |
| 20260503190719 | 10 | 289 | 6.4 | 9.7 | 0.00 | 0.00 | 0.00 | 45 | 1013.1 |
| 20260503190215 | 10 | 210 | 4.8 | 4.8 | 0.00 | 0.00 | 0.00 | 42 | 1013.1 |
| 20260503185713 | 10 | 255 | 3.2 | 3.2 | 0.00 | 0.00 | 0.00 | 44 | 1013.3 |
| 20260503185208 | 10 | 179 | 11.3 | 16.1 | 0.00 | 0.00 | 0.00 | 43 | 1013.4 |
| 20260503184703 | 10 | 245 | 1.6 | 1.6 | 0.00 | 0.00 | 0.00 | 45 | 1013.4 |
| 20260503184200 | 10 | 166 | 6.4 | 6.4 | 0.00 | 0.00 | 0.00 | 41 | 1013.3 |
| 20260503183656 | 9 | 249 | 4.8 | 6.4 | 0.00 | 0.00 | 0.00 | 45 | 1013.6 |
| 20260503183153 | 10 | 302 | 6.4 | 6.4 | 0.00 | 0.00 | 0.00 | 44 | 1013.9 |
| 20260503182651 | 10 | 270 | 1.6 | 3.2 | 0.00 | 0.00 | 0.00 | 43 | 1013.4 |
| 20260503182150 | 10 | 230 | 6.4 | 9.7 | 0.00 | 0.00 | 0.00 | 44 | 1013.8 |
| 20260503181646 | 10 | 232 | 4.8 | 9.7 | 0.00 | 0.00 | 0.00 | 42 | 1013.6 |
| 20260503181143 | 10 | 39 | 4.8 | 6.4 | 0.00 | 0.00 | 0.00 | 42 | 1013.5 |
| 20260503180640 | 11 | 242 | 4.8 | 6.4 | 0.00 | 0.00 | 0.00 | 41 | 1013.4 |
| 20260503180138 | 10 | 330 | 8.0 | 11.3 | 0.00 | 0.00 | 0.00 | 42 | 1013.8 |
| 20260503175635 | 10 | 232 | 4.8 | 6.4 | 0.00 | 0.00 | 0.00 | 43 | 1013.6 |
| 20260503175132 | 10 | 252 | 3.2 | 3.2 | 0.00 | 0.00 | 0.00 | 46 | 1013.6 |
| 20260503174628 | 10 | 187 | 4.8 | 6.4 | 0.00 | 0.00 | 0.00 | 46 | 1013.8 |
| 20260503174126 | 10 | 163 | 3.2 | 4.8 | 0.00 | 0.00 | 0.00 | 41 | 1013.5 |
| 20260503173620 | 10 | 264 | 6.4 | 9.7 | 0.00 | 0.00 | 0.00 | 44 | 1013.8 |
| 20260503173117 | 9 | 283 | 8.0 | 9.7 | 0.00 | 0.00 | 0.00 | 44 | 1013.9 |
| 20260503172614 | 8 | 35 | 6.4 | 9.7 | 0.00 | 0.00 | 0.00 | 45 | 1014.0 |
| 20260503172112 | 10 | 214 | 3.2 | 6.4 | 0.00 | 0.00 | 0.00 | 44 | 1013.8 |
| 20260503171603 | 10 | 312 | 11.3 | 14.5 | 0.00 | 0.00 | 0.00 | 45 | 1013.8 |
| 20260503171100 | 10 | 190 | 3.2 | 6.4 | 0.00 | 0.00 | 0.00 | 43 | 1013.8 |
| 20260503170556 | 8 | 179 | 6.4 | 9.7 | 0.00 | 0.00 | 0.00 | 45 | 1014.0 |
| 20260503150949 | 7 | 3 | 9.7 | 16.1 | 0.00 | 0.00 | 0.00 | 50 | 1014.8 |
| 20260503150445 | 7 | 264 | 4.8 | 11.3 | 0.00 | 0.00 | 0.00 | 50 | 1014.6 |
| 20260503131337 | 2 | 261 | 6.4 | 6.4 | 0.00 | 0.00 | 0.00 | 76 | 1014.9 |
| 20260503130835 | 2 | 288 | 4.8 | 4.8 | 0.00 | 0.00 | 0.00 | 76 | 1014.6 |
| 20260503130333 | 2 | 291 | 3.2 | 3.2 | 0.00 | 0.00 | 0.00 | 76 | 1014.7 |
| 20260503110720 | -2 | 256 | 1.6 | 3.2 | 0.00 | 0.00 | 0.00 | 92 | 1014.1 |
| 20260503110217 | -2 | 292 | 3.2 | 4.8 | 0.00 | 0.00 | 0.00 | 92 | 1014.1 |
| 20260503100144 | -2 | 294 | 1.6 | 1.6 | 0.00 | 0.00 | 0.00 | 93 | 1013.5 |
| 20260503081538 | -1 | 295 | 1.6 | 1.6 | 0.00 | 0.00 | 0.00 | 88 | 1013.2 |
| 20260503081036 | -1 | 320 | 1.6 | 1.6 | 0.00 | 0.00 | 0.00 | 88 | 1013.2 |
| 20260503080532 | -1 | 280 | 1.6 | 3.2 | 0.00 | 0.00 | 0.00 | 87 | 1013.4 |
| 20260503072505 | -1 | 205 | 0.0 | 0.0 | 0.00 | 0.00 | 0.00 | 85 | 1013.0 |
| 20260503072003 | -1 | 288 | 1.6 | 1.6 | 0.00 | 0.00 | 0.00 | 84 | 1013.2 |
| 20260503071500 | -1 | 179 | 0.0 | 1.6 | 0.00 | 0.00 | 0.00 | 84 | 1013.1 |
| 20260503070955 | -1 | 245 | 1.6 | 1.6 | 0.00 | 0.00 | 0.00 | 84 | 1013.1 |
| 20260503070453 | -1 | 304 | 3.2 | 3.2 | 0.00 | 0.00 | 0.00 | 83 | 1013.0 |
| 20260503054906 | 0 | 313 | 1.6 | 1.6 | 0.00 | 0.00 | 0.00 | 78 | 1013.1 |
| 20260503054402 | 0 | 306 | 3.2 | 3.2 | 0.00 | 0.00 | 0.00 | 79 | 1013.2 |
| 20260503053900 | 0 | 310 | 3.2 | 3.2 | 0.00 | 0.00 | 0.00 | 78 | 1013.2 |
| 20260503053358 | 0 | 275 | 3.2 | 3.2 | 0.00 | 0.00 | 0.00 | 77 | 1013.4 |
| 20260503052853 | 0 | 210 | 1.6 | 3.2 | 0.00 | 0.00 | 0.00 | 78 | 1013.2 |
| 20260503052351 | 0 | 297 | 3.2 | 3.2 | 0.00 | 0.00 | 0.00 | 76 | 1013.3 |
| 20260503051847 | 0 | 256 | 4.8 | 4.8 | 0.00 | 0.00 | 0.00 | 75 | 1013.3 |
| 20260503051343 | 0 | 266 | 1.6 | 3.2 | 0.00 | 0.00 | 0.00 | 75 | 1013.4 |
| 20260503050840 | 0 | 284 | 3.2 | 4.8 | 0.00 | 0.00 | 0.00 | 78 | 1013.3 |
| 20260503050336 | 0 | 331 | 4.8 | 6.4 | 0.00 | 0.00 | 0.00 | 76 | 1013.3 |
| 20260503045835 | 0 | 304 | 4.8 | 6.4 | 0.00 | 0.00 | 0.00 | 76 | 1013.2 |
| 20260503045332 | 0 | 261 | 1.6 | 1.6 | 0.00 | 0.00 | 0.00 | 76 | 1013.6 |
| 20260503044828 | 0 | 226 | 3.2 | 6.4 | 0.00 | 0.00 | 0.00 | 75 | 1013.6 |
| 20260503044325 | 0 | 309 | 1.6 | 4.8 | 0.00 | 0.00 | 0.00 | 76 | 1013.5 |
| 20260503043822 | 0 | 317 | 3.2 | 4.8 | 0.00 | 0.00 | 0.00 | 76 | 1013.5 |
| 20260503043319 | 0 | 326 | 4.8 | 6.4 | 0.00 | 0.00 | 0.00 | 75 | 1013.6 |
| 20260503042816 | 0 | 278 | 8.0 | 11.3 | 0.00 | 0.00 | 0.00 | 75 | 1013.5 |
| 20260503042312 | 0 | 276 | 4.8 | 4.8 | 0.00 | 0.00 | 0.00 | 74 | 1013.5 |
| 20260503041808 | 0 | 304 | 6.4 | 9.7 | 0.00 | 0.00 | 0.00 | 75 | 1013.4 |
| 20260503041306 | 0 | 289 | 3.2 | 4.8 | 0.00 | 0.00 | 0.00 | 75 | 1013.8 |
| 20260503040803 | 0 | 325 | 3.2 | 6.4 | 0.00 | 0.00 | 0.00 | 74 | 1013.6 |
| 20260503040301 | 0 | 193 | 1.6 | 1.6 | 0.00 | 0.00 | 0.00 | 75 | 1013.5 |
| 20260503035757 | 0 | 336 | 3.2 | 3.2 | 0.00 | 0.00 | 0.00 | 74 | 1013.6 |
| 20260503035255 | 0 | 214 | 1.6 | 1.6 | 0.00 | 0.00 | 0.00 | 75 | 1013.6 |
| 20260503034752 | 0 | 298 | 4.8 | 9.7 | 0.00 | 0.00 | 0.00 | 74 | 1013.5 |
| 20260503034249 | 1 | 253 | 3.2 | 4.8 | 0.00 | 0.00 | 0.00 | 73 | 1013.8 |
| 20260503033746 | 1 | 282 | 1.6 | 1.6 | 0.00 | 0.00 | 0.00 | 73 | 1013.5 |
| 20260503033244 | 1 | 310 | 4.8 | 6.4 | 0.00 | 0.00 | 0.00 | 72 | 1013.6 |
| 20260503032742 | 1 | 324 | 3.2 | 4.8 | 0.00 | 0.00 | 0.00 | 73 | 1014.0 |
| 20260503032240 | 1 | 236 | 3.2 | 3.2 | 0.00 | 0.00 | 0.00 | 73 | 1013.6 |
| 20260503031737 | 1 | 313 | 4.8 | 6.4 | 0.00 | 0.00 | 0.00 | 74 | 1013.5 |
| 20260503031235 | 1 | 315 | 4.8 | 6.4 | 0.00 | 0.00 | 0.00 | 72 | 1013.8 |
| 20260503030731 | 1 | 298 | 3.2 | 4.8 | 0.00 | 0.00 | 0.00 | 72 | 1013.9 |